Theta_e
334 335 335 334 335 336 337 338 337 338 337 337 337 337 337 335 337 336 339 341 340 339 338 337 336 336 336 336 336 337 338 339 339 341 343 345 345 345 343 343 342 342 341 342 341 340 340 340 339 339 338 338 337 337 337 337 337 336 334 334 332 331 331 332 332 332 330 330 332 332 331 332 330 329 327 327 327 328 328 326 324 323 322 319 318
333 331 331 333 333 335 336 336 337 334 335 337 336 337 337 338 337 337 338 338 339 339 337 338 337 336 335 335 336 336 337 338 338 340 342 342 343 343 342 341 342 341 341 342 342 340 339 338 339 338 338 337 337 337 336 335 335 335 335 331 332 329 328 329 329 331 327 324 326 325 325 329 330 328 326 326 326 327 327 326 326 323 321 320 319
330 330 331 330 332 333 334 335 337 336 336 336 338 338 338 337 338 338 338 337 338 338 338 338 339 338 338 336 337 336 339 341 340 341 341 341 341 341 341 341 340 340 341 340 340 340 339 338 338 338 338 337 336 335 335 334 334 333 333 330 329 329 327 328 328 328 324 326 326 326 320 321 325 326 327 325 325 324 325 325 325 322 320 320 318
328 329 329 329 330 331 332 334 335 336 335 336 336 336 337 337 338 339 338 338 338 339 338 339 339 339 340 338 338 338 336 338 339 339 339 338 337 339 340 340 340 340 339 339 339 339 339 337 337 337 337 337 336 334 333 331 333 332 331 330 330 327 325 325 327 327 325 324 317 317 320 320 312 318 320 323 325 323 324 324 323 321 321 319 317
328 328 329 328 328 330 331 333 335 334 334 335 336 336 337 337 339 339 338 338 339 339 340 339 336 336 335 335 336 335 337 336 336 335 336 336 336 337 337 339 338 338 338 338 337 337 338 337 337 337 336 336 335 333 331 330 329 330 330 329 328 327 323 324 325 326 325 327 323 319 317 316 313 316 318 321 323 322 321 322 322 321 320 318 315
329 328 329 328 329 329 331 332 333 333 333 335 337 338 334 334 335 336 339 339 339 338 339 337 336 334 334 333 332 331 330 331 332 332 332 334 334 336 337 337 337 337 337 337 336 336 337 337 337 335 335 334 332 331 331 330 329 328 328 328 326 327 326 324 323 325 326 325 324 324 321 315 314 316 316 311 323 323 322 322 322 322 320 317 314
328 329 330 327 328 329 330 331 332 333 334 336 336 337 335 334 334 335 337 338 339 338 339 338 336 336 336 336 336 333 331 333 335 335 334 334 334 334 335 337 336 336 336 336 336 336 336 336 336 335 333 332 331 331 329 328 327 327 328 327 325 326 326 321 321 321 323 323 323 323 323 322 320 316 312 314 312 317 320 319 319 320 320 317 312
326 327 329 328 328 329 329 331 332 333 335 335 335 335 335 332 334 333 335 338 338 338 338 336 335 337 337 336 335 335 334 332 332 333 334 333 332 333 334 335 335 335 335 333 333 334 335 334 334 333 331 331 329 328 327 327 326 326 326 327 326 324 324 322 320 320 319 318 322 321 321 321 319 319 318 314 312 309 313 318 320 320 319 318 314
327 326 328 328 328 329 330 331 333 333 334 334 335 334 335 335 335 333 335 338 338 338 336 333 335 336 336 334 333 334 334 331 331 332 331 332 331 332 334 334 334 334 332 332 333 334 334 334 333 332 330 329 328 327 326 326 325 325 324 323 323 322 322 321 320 317 319 317 319 319 319 317 318 317 317 317 312 310 310 310 312 317 318 317 311
327 328 329 328 329 330 331 333 333 333 334 335 335 335 335 336 335 332 333 337 336 337 336 334 334 335 335 334 332 329 328 328 330 330 330 331 331 331 333 332 331 329 329 331 332 332 333 332 331 330 329 328 326 325 324 324 323 322 322 322 321 320 319 318 317 317 317 317 318 318 317 317 317 316 314 314 314 314 308 308 310 310 309 312 309
327 328 329 329 330 330 332 331 332 333 334 334 334 334 335 335 334 332 332 335 336 336 336 335 336 338 336 334 332 329 327 328 328 329 329 330 329 330 331 331 330 327 328 330 332 332 331 330 330 329 328 327 325 324 323 321 321 320 320 320 319 318 317 317 316 317 316 315 315 315 314 314 312 311 311 312 311 309 308 308 309 309 311 308 306
327 327 327 328 329 330 331 330 331 332 333 333 333 334 334 334 331 329 330 332 334 335 336 335 337 338 337 336 334 331 330 329 328 327 327 327 328 328 329 329 328 327 330 330 329 330 330 329 328 327 326 325 323 323 322 321 320 319 318 317 317 317 317 316 316 315 315 314 314 314 313 314 313 312 312 312 311 309 308 306 304 307 309 304 305
325 326 326 327 327 328 328 329 330 330 331 332 333 333 332 329 328 327 329 331 332 334 334 333 335 335 335 335 334 333 333 331 329 327 328 328 328 328 327 327 327 327 328 328 328 329 328 327 326 325 324 323 322 320 320 319 319 317 316 315 315 314 314 314 313 313 313 312 312 313 313 313 312 313 313 312 312 311 307 303 304 306 305 301 304
325 326 326 327 327 328 329 329 330 330 331 332 333 333 330 328 328 330 330 331 331 332 333 333 334 334 335 335 334 333 332 330 328 328 329 329 329 328 328 328 328 328 328 327 327 328 328 327 325 324 322 321 320 320 319 318 317 315 315 313 313 313 313 313 312 312 312 313 313 311 311 310 311 311 311 310 308 307 303 303 305 304 304 300 303
325 325 326 327 327 328 328 329 330 331 331 332 332 333 330 327 329 330 330 330 330 331 331 330 330 332 334 335 333 332 331 330 329 329 329 328 328 328 329 329 329 328 327 327 327 327 326 325 324 323 322 321 320 319 318 317 316 315 313 313 313 313 313 312 312 312 311 311 311 310 309 309 309 309 309 308 308 307 306 305 304 302 302 301 302
325 325 326 327 328 329 329 329 330 331 332 332 332 333 331 327 329 330 330 329 328 328 328 330 329 331 333 333 332 332 330 329 328 328 329 330 329 329 328 329 329 328 327 326 327 326 325 324 322 321 320 319 318 317 316 315 315 314 313 313 312 313 312 312 311 311 310 311 310 310 309 307 309 308 308 307 307 308 307 306 306 305 301 298 301
325 325 326 327 328 328 329 330 331 332 332 332 332 334 332 329 328 329 329 329 328 328 329 329 330 331 333 334 333 331 330 328 327 328 329 329 329 328 327 327 328 328 326 326 326 325 324 322 321 320 319 318 317 316 315 315 314 313 312 312 312 312 312 311 311 310 310 310 309 309 307 307 307 309 308 308 308 308 307 307 306 305 305 301 299
325 326 327 328 328 328 329 330 332 332 333 333 333 334 334 332 329 328 329 328 329 329 328 329 330 331 332 333 333 331 330 328 328 327 328 327 327 327 327 326 327 327 325 325 325 324 322 321 320 319 318 317 317 316 315 314 314 312 312 311 312 312 311 310 310 310 309 309 309 308 308 307 308 308 307 308 308 307 306 306 305 305 305 302 302
324 325 326 327 327 327 328 330 331 333 334 335 335 335 334 333 330 328 328 331 331 329 330 330 332 332 332 332 332 330 329 328 328 328 328 327 326 326 326 327 327 326 324 324 324 323 321 320 319 318 317 316 316 315 315 314 313 311 311 310 311 311 309 309 309 309 309 308 307 307 307 307 308 307 307 307 307 307 306 305 305 305 305 305 303
323 324 326 327 327 328 328 329 330 331 333 334 335 335 334 333 328 328 330 331 330 330 330 329 331 332 332 332 331 329 328 328 328 328 328 326 326 326 326 326 326 325 324 324 323 321 320 319 318 317 316 316 315 314 314 313 312 311 311 310 310 310 308 308 308 309 309 308 306 306 307 307 307 306 306 307 306 307 307 305 305 304 304 305 304
323 324 326 327 327 328 328 329 331 332 334 334 334 334 334 332 329 330 330 328 328 329 329 330 331 332 331 329 329 329 328 328 328 328 328 327 326 325 326 326 325 323 323 323 322 321 319 318 317 316 315 315 314 313 313 312 311 310 310 310 309 308 307 307 307 307 308 308 306 305 305 306 307 306 306 306 306 306 306 305 305 304 303 303 303
324 326 327 328 328 328 328 329 331 332 333 333 334 334 333 332 330 330 330 329 328 327 329 330 331 330 329 329 328 329 328 327 328 328 326 325 324 325 325 323 323 323 323 323 321 320 319 317 316 315 315 314 313 313 312 311 310 309 309 310 309 308 307 307 307 306 307 308 307 305 304 306 306 305 306 305 305 305 305 303 303 303 302 302 303
324 326 327 328 328 327 328 329 330 331 332 334 332 332 332 331 331 330 329 328 328 328 330 331 330 329 329 328 328 327 327 328 328 327 325 324 324 324 324 322 321 321 323 322 321 320 318 317 316 315 314 313 312 312 312 311 310 308 308 309 309 308 307 306 306 306 306 306 306 305 304 306 306 305 305 305 306 305 305 304 303 303 302 303 303
325 327 328 328 328 328 328 328 329 330 331 332 332 333 332 331 331 330 329 328 328 328 328 329 329 329 329 328 326 326 327 327 326 324 324 324 323 323 323 322 321 321 321 322 321 319 318 317 315 314 313 312 312 312 311 310 309 308 308 307 308 308 308 307 306 306 306 306 305 305 305 305 305 304 304 304 304 305 304 304 303 303 303 302 303
324 326 326 327 327 327 328 329 329 330 331 332 332 332 331 330 331 330 329 328 328 328 328 327 327 328 328 327 326 326 326 325 324 324 324 323 323 322 321 320 319 319 319 320 320 319 318 316 315 313 312 312 311 311 310 310 310 310 309 308 308 308 308 308 308 307 307 306 306 306 305 305 305 303 303 303 304 305 304 304 303 303 302 303 303
324 325 325 325 326 328 328 329 330 331 331 331 332 332 331 330 330 330 328 327 327 327 328 325 326 325 325 325 325 326 325 324 324 324 323 322 321 321 320 319 318 317 318 319 319 319 318 316 315 313 313 312 311 311 310 309 309 309 310 309 309 308 307 307 308 308 307 308 307 306 306 306 305 304 303 303 304 304 304 303 303 303 303 303 303
323 325 325 326 326 327 328 330 331 331 331 331 331 330 329 329 329 328 327 327 326 326 326 324 324 324 324 325 325 326 325 324 323 323 322 321 320 320 318 316 316 316 317 318 319 318 318 316 315 314 312 312 311 311 310 310 309 309 308 308 308 308 308 309 308 308 309 309 308 308 307 307 305 304 304 303 303 304 303 303 303 303 303 303 302
324 324 325 325 326 327 328 329 330 331 332 332 332 330 328 328 327 327 327 326 325 326 324 323 321 322 322 324 326 325 323 322 321 320 319 318 318 317 316 316 315 315 316 317 318 318 317 317 315 314 313 313 312 311 310 310 309 309 308 308 308 308 307 308 309 309 310 310 309 308 307 307 307 306 305 305 305 303 303 303 303 303 303 303 302
322 323 325 325 325 326 328 329 329 330 330 331 331 331 329 328 326 325 325 324 324 325 323 322 321 322 322 324 323 321 321 320 318 317 315 315 315 315 314 314 314 315 317 317 317 317 315 315 314 314 312 312 311 311 310 310 309 308 309 308 308 308 307 308 308 309 310 310 309 309 309 308 310 308 306 306 305 305 304 302 303 304 303 303 302
321 322 324 326 327 327 328 329 328 328 329 330 330 329 329 327 326 325 325 325 325 324 322 322 322 323 323 321 319 318 316 316 315 315 314 314 314 314 313 313 313 313 315 315 316 316 315 314 313 312 312 312 311 311 308 303 304 308 309 308 309 309 308 308 308 308 308 309 310 310 311 308 306 305 303 299 298 299 302 305 304 304 303 303 302
321 323 324 326 326 327 328 328 328 328 328 328 328 328 329 328 326 326 326 326 326 323 322 321 322 322 320 319 317 315 314 313 313 313 312 312 313 314 314 312 312 312 313 314 314 314 314 313 312 311 311 311 310 308 298 296 297 300 308 309 308 308 309 309 308 307 307 307 308 309 309 307 306 304 303 296 296 296 295 295 295 297 299 304 303
321 323 324 325 326 326 327 327 329 330 329 329 327 327 327 326 327 326 326 328 325 323 322 322 321 319 318 317 316 315 313 312 312 311 311 312 313 313 313 312 311 311 312 313 313 313 313 312 312 311 311 311 310 301 294 295 295 296 302 309 309 308 308 308 308 308 308 307 307 308 309 310 309 308 306 304 301 296 295 295 294 294 293 293 294
321 323 323 324 325 327 327 328 329 329 331 330 328 326 325 325 325 325 324 323 322 322 322 322 320 318 317 317 316 315 313 311 311 310 311 312 312 312 311 310 310 311 311 311 311 311 311 311 311 310 310 310 309 295 294 294 294 294 296 304 307 308 307 307 307 307 307 307 307 307 308 309 307 306 307 306 304 303 298 297 297 297 296 295 292
323 324 324 325 326 327 329 329 329 330 330 331 331 328 326 325 325 324 323 322 322 322 321 319 319 318 317 316 315 313 311 311 310 310 309 309 310 310 310 310 309 310 310 310 310 310 310 310 310 310 309 309 307 296 294 294 294 293 294 300 306 307 307 306 306 307 307 307 307 307 306 307 308 308 308 307 306 305 305 305 305 305 304 301 296
322 324 325 326 326 327 329 329 329 330 331 330 329 329 327 324 323 322 321 321 322 321 320 319 319 318 317 316 314 312 310 310 309 308 308 307 307 308 308 308 308 309 309 309 309 308 308 309 309 309 308 307 306 294 293 293 292 292 293 298 306 305 305 305 305 306 307 307 307 308 308 307 307 307 308 307 307 306 306 305 305 305 305 305 306
323 324 325 327 327 328 329 330 330 330 329 328 327 326 324 323 323 322 321 322 322 320 319 318 319 317 316 315 313 311 309 308 308 307 306 305 305 306 305 306 306 307 307 308 308 308 307 307 307 307 307 306 303 292 292 292 292 292 294 305 305 305 305 304 304 304 304 305 305 307 308 307 307 307 302 295 301 307 306 304 303 304 304 305 305
325 326 326 328 329 330 330 331 330 329 327 327 326 325 324 323 322 322 321 321 322 320 319 318 318 317 315 314 312 310 308 307 307 306 306 305 305 306 305 305 304 304 304 305 306 306 307 306 305 306 306 305 302 294 291 292 292 292 297 305 305 304 304 304 304 304 304 304 304 305 307 307 307 307 298 292 294 299 305 304 303 303 303 304 303
326 327 328 329 329 331 331 331 330 330 329 327 324 324 322 322 322 321 321 321 321 320 320 318 318 316 315 314 312 310 308 307 307 307 307 307 306 306 305 305 304 303 304 304 305 304 305 305 305 305 306 304 303 296 291 292 292 293 299 304 304 304 304 304 303 304 305 306 304 299 301 306 307 306 292 292 292 301 305 304 303 302 302 301 303
326 326 326 327 329 330 330 330 330 328 327 326 325 324 321 320 320 321 322 321 320 320 319 318 318 315 315 313 312 311 309 308 307 307 307 306 304 303 304 305 304 304 303 303 303 303 303 303 304 305 302 304 303 297 291 291 292 292 300 305 304 304 303 303 302 302 304 304 303 300 298 301 306 301 290 292 291 299 306 304 303 303 301 301 301
326 327 328 328 329 329 328 329 328 327 327 326 326 326 323 321 322 322 320 320 320 320 318 318 316 314 314 312 311 310 309 307 306 306 306 306 305 303 302 302 302 301 300 300 301 302 301 301 302 303 302 304 302 300 296 291 292 292 295 304 304 303 302 302 302 301 301 303 303 303 298 290 290 290 291 291 292 292 306 305 304 303 302 300 303
324 323 319 326 327 327 327 328 328 326 324 323 324 325 324 322 322 320 319 319 317 316 315 314 314 313 313 312 312 310 309 308 307 306 306 304 303 301 300 299 299 298 299 299 300 300 301 300 301 302 302 303 303 301 297 291 292 292 292 297 303 303 302 302 301 301 301 302 302 302 303 292 289 290 290 290 291 291 295 307 305 304 304 304 301
320 318 321 325 325 327 328 329 327 323 321 320 320 321 323 321 317 316 316 317 316 315 314 313 313 312 311 311 310 308 307 307 307 306 303 302 301 301 300 300 299 299 298 298 298 299 299 299 300 300 301 301 301 299 299 292 291 291 292 293 302 304 303 302 301 301 301 301 302 302 302 294 289 290 290 290 290 291 291 304 305 291 289 290 302
319 321 322 323 323 324 324 324 324 323 320 318 318 317 319 317 315 314 316 317 317 316 314 312 311 310 310 309 308 306 305 306 305 305 303 302 302 302 301 300 299 298 297 296 297 297 298 298 298 299 300 301 300 299 295 297 291 291 291 291 294 299 293 303 301 300 300 301 302 303 300 292 289 289 289 289 290 289 294 300 288 289 290 289 295
322 322 322 323 323 323 323 322 322 321 319 318 316 315 314 314 313 313 313 313 314 314 313 311 309 309 308 308 308 307 306 306 305 304 303 302 302 302 301 300 299 297 296 295 296 296 297 297 297 298 299 299 301 300 295 294 295 290 290 290 291 292 293 302 302 301 301 300 301 302 299 289 289 289 289 289 290 293 296 288 289 288 289 292 301
320 320 320 321 321 321 321 319 319 319 319 319 317 314 311 311 310 312 312 313 312 311 311 309 310 309 308 308 308 308 306 306 305 304 302 301 300 300 298 299 299 298 296 295 295 296 296 296 297 297 297 299 300 301 300 295 292 291 290 290 290 290 291 293 302 302 302 302 297 291 288 289 289 289 288 290 291 290 288 289 289 289 294 301 301
319 318 319 320 320 320 319 316 315 316 315 315 316 315 311 310 311 312 313 313 313 311 309 309 309 308 308 308 307 306 306 305 305 304 303 302 300 300 300 299 300 299 296 296 296 296 296 297 297 297 298 298 299 300 300 300 296 294 293 290 290 290 291 292 297 300 294 291 289 289 289 288 289 292 300 300 300 299 289 289 288 292 302 299 299
318 318 317 318 318 316 315 314 312 313 313 314 315 315 313 311 311 312 314 314 312 310 308 308 308 308 308 308 305 304 304 304 304 304 303 302 301 301 301 300 300 299 297 297 296 295 296 297 297 298 298 298 298 299 300 301 300 299 299 297 296 296 292 292 298 298 294 297 295 295 296 293 293 289 292 292 294 292 296 298 299 299 300 299 299
318 318 318 317 316 315 314 313 311 312 312 313 314 313 312 312 312 313 313 312 309 309 309 309 309 308 308 306 304 296 300 302 302 303 301 301 301 301 300 299 299 299 298 297 296 296 296 297 298 298 298 298 298 299 300 300 300 300 300 299 300 300 300 300 300 301 302 302 300 293 293 298 298 299 298 299 299 299 298 297 299 299 299 299 297
316 317 316 317 315 314 314 313 311 311 312 313 313 312 313 314 313 313 313 311 308 306 309 309 309 308 306 304 303 302 302 302 302 302 301 301 300 300 299 299 300 300 300 298 297 298 298 299 299 299 298 299 299 299 300 296 301 295 298 300 300 300 301 301 298 294 300 300 299 298 299 298 299 294 295 298 298 298 297 298 299 299 299 299 299
316 316 315 314 314 314 312 310 310 311 312 313 312 312 313 313 314 314 313 310 308 309 310 309 309 308 306 303 302 303 303 302 302 300 299 298 291 294 299 300 299 295 293 293 294 299 300 300 301 302 303 301 301 302 295 293 293 292 292 293 294 294 294 298 293 290 296 299 299 296 297 296 296 297 296 295 295 296 297 296 297 293 296 298 298
315 315 314 314 313 312 311 309 310 311 311 311 311 310 311 312 313 313 312 310 310 309 308 308 307 306 303 303 303 303 302 302 302 301 300 298 298 298 290 291 293 293 292 291 291 291 293 294 300 302 301 294 293 293 292 292 291 291 291 291 291 290 289 289 289 292 294 295 296 296 296 296 296 297 294 297 295 295 294 294 295 296 297 297 293
Wind_Speed
8 7 7 10 10 10 10 10 10 10 10 11 12 12 13 13 13 13 12 12 10 9 8 7 7 6 5 6 5 5 5 4 4 4 4 5 4 5 5 4 4 4 5 6 5 4 3 3 4 3 2 2 2 2 2 2 2 2 2 3 4 4 4 6 5 4 3 2 3 3 3 4 6 8 9 9 8 7 6 7 6 7 7 8 7
6 6 7 10 9 11 9 9 11 12 11 12 13 12 13 13 14 13 12 12 11 9 7 6 5 4 3 4 5 6 6 5 5 4 5 5 4 5 5 5 5 4 4 5 4 4 4 3 3 3 3 3 3 2 2 3 4 3 2 2 3 4 4 6 7 6 2 3 1 1 2 4 3 6 8 9 9 7 7 7 7 7 8 7 7
11 10 8 9 11 11 11 11 11 12 12 13 13 13 13 13 13 12 12 12 11 10 8 5 5 6 6 6 7 6 4 3 4 5 5 6 5 4 4 4 5 5 5 4 4 3 4 4 3 3 3 2 2 2 2 3 3 3 3 3 2 3 4 5 7 7 4 3 1 3 3 1 5 3 6 7 8 8 6 7 7 7 7 7 6
14 14 12 9 11 10 10 12 11 10 10 10 12 12 12 12 12 13 12 12 12 10 10 9 8 8 6 7 7 5 6 6 6 5 6 6 5 4 4 4 5 5 5 5 4 4 4 4 3 3 3 1 1 2 2 3 3 3 3 3 2 2 4 6 7 8 6 5 3 5 3 3 1 3 7 3 6 9 8 7 6 6 8 6 6
14 12 10 10 11 11 10 12 11 11 11 11 11 11 5 5 8 11 12 13 13 12 12 12 12 10 9 9 7 9 7 6 7 6 6 4 5 4 4 4 5 5 5 5 5 4 4 3 3 3 3 2 2 2 3 3 3 3 4 4 4 3 4 4 6 7 8 6 4 1 0 1 3 5 8 2 3 5 8 8 7 8 9 7 7
13 13 12 11 10 10 11 11 13 11 12 10 10 10 12 12 9 6 8 11 13 15 14 12 10 11 10 9 8 7 8 8 8 9 8 6 5 4 4 4 5 6 5 5 5 4 4 3 3 3 3 3 3 3 3 3 4 4 4 3 5 5 3 3 4 5 6 7 7 5 4 4 3 4 4 3 2 3 5 7 8 7 8 7 7
14 12 10 11 12 12 12 11 13 12 11 11 11 10 11 10 11 7 6 9 13 15 14 9 9 10 14 13 11 12 11 8 7 7 6 5 7 6 4 4 5 6 5 5 5 4 4 4 3 4 4 3 3 3 4 4 3 4 3 4 5 4 3 4 4 3 4 6 6 6 6 5 4 4 4 4 3 2 3 5 7 7 7 9 8
11 12 11 10 12 12 13 12 11 12 11 12 11 11 14 16 13 14 11 10 11 14 10 10 9 10 11 12 10 11 11 11 9 6 7 7 7 6 4 4 4 5 5 5 4 4 4 4 4 4 4 3 3 4 4 3 3 4 5 5 5 5 5 5 4 4 4 4 4 4 5 5 5 5 4 4 3 5 3 4 5 7 5 7 7
12 11 11 11 12 13 12 12 11 12 12 12 13 12 13 15 15 15 11 10 11 14 12 13 10 5 11 11 10 8 9 10 9 9 8 7 8 6 4 5 5 5 5 5 4 4 4 4 5 4 4 4 4 4 4 4 5 5 5 5 6 6 5 5 5 5 4 4 3 4 3 3 4 5 5 4 5 5 4 6 6 5 4 6 7
12 12 11 11 12 12 12 11 11 13 11 13 13 12 13 13 14 17 13 8 9 11 12 14 14 10 8 11 13 10 10 9 9 10 9 9 7 7 4 5 4 4 4 4 5 5 5 5 5 5 4 4 4 5 5 5 5 6 6 6 6 7 6 6 6 4 4 4 4 3 4 3 3 4 6 7 5 5 5 6 6 7 6 6 7
11 11 11 11 11 12 12 13 13 12 12 13 13 13 13 13 10 15 12 7 10 11 14 15 15 12 11 14 14 14 13 12 11 10 10 9 10 8 5 5 4 4 4 4 5 5 6 5 5 5 4 4 4 4 4 4 4 5 5 7 8 7 6 6 7 6 5 6 6 5 5 6 5 6 6 6 6 6 6 6 5 6 5 6 8
12 11 10 11 12 13 14 14 14 13 13 14 13 12 12 7 12 13 10 11 10 9 10 15 14 11 10 12 12 14 14 13 13 12 12 11 10 10 6 5 4 4 4 5 5 6 6 6 6 5 4 4 5 4 4 4 4 4 5 6 6 6 6 6 6 7 6 6 6 5 5 5 6 6 6 5 5 4 5 6 6 5 3 6 6
12 11 11 11 12 13 15 14 14 14 14 14 13 12 7 11 16 14 12 11 10 10 11 14 16 15 12 10 11 12 10 13 13 12 9 8 8 8 7 6 6 6 5 6 6 7 5 6 5 5 4 4 5 6 5 5 4 5 6 7 7 7 7 7 7 7 6 5 5 5 5 6 6 5 4 4 3 2 4 5 5 4 5 5 6
11 11 12 12 12 13 14 14 14 12 14 13 12 10 9 11 12 12 13 12 11 9 8 8 7 8 10 9 10 9 9 11 11 9 8 7 7 8 8 7 6 6 7 7 7 6 5 6 6 6 6 6 6 6 5 5 5 6 7 8 8 7 7 8 8 7 7 6 5 6 6 6 6 5 5 4 5 4 4 5 5 4 5 5 5
13 13 13 14 15 15 12 12 12 12 13 12 11 12 11 14 15 15 13 9 8 6 5 7 6 4 9 10 12 11 11 9 8 7 8 8 7 8 7 6 6 6 6 7 8 7 7 7 7 6 6 6 6 6 5 5 6 6 7 7 6 6 7 7 7 7 7 8 8 7 6 6 6 6 5 5 4 4 4 5 5 4 3 5 6
14 14 13 15 15 14 12 12 12 12 13 11 13 13 11 12 11 9 12 10 9 8 8 9 10 10 10 11 11 12 10 9 9 6 6 6 8 8 7 6 6 6 7 8 7 7 7 8 7 7 7 6 6 6 6 5 6 7 7 6 7 5 8 9 7 8 8 8 8 7 7 7 6 6 5 5 5 4 4 5 5 4 5 5 4
14 15 14 15 13 13 13 14 12 12 12 12 14 14 13 13 15 16 13 10 12 12 13 12 11 11 11 11 10 12 13 13 11 9 7 6 7 7 7 6 7 6 8 6 7 7 7 8 7 7 6 6 7 6 6 6 6 6 6 7 7 7 8 8 7 7 7 7 7 8 7 6 6 6 5 5 5 5 5 5 5 5 4 5 5
15 14 14 14 13 14 12 12 11 12 13 13 13 13 13 11 16 13 11 13 13 13 13 12 13 12 12 12 12 11 9 10 9 12 9 8 7 7 7 7 7 8 8 6 8 8 8 8 7 7 6 7 7 6 6 6 7 6 7 7 7 7 8 7 7 7 7 7 8 8 7 7 6 6 6 6 6 5 5 6 6 6 6 6 5
14 15 14 13 13 14 15 15 13 11 10 11 12 12 13 12 13 12 11 14 14 11 10 11 12 10 10 11 13 12 11 12 10 9 9 9 9 8 8 8 8 8 8 8 8 8 8 7 7 7 7 7 6 6 6 6 6 7 6 7 6 7 8 8 7 6 6 7 9 9 7 6 6 6 6 6 6 6 6 6 6 6 7 6 5
15 15 15 15 14 16 15 15 15 14 13 12 13 12 15 13 17 13 12 12 11 12 11 11 11 10 11 12 12 12 8 9 11 10 9 9 9 10 9 9 9 8 8 9 8 9 8 8 7 7 7 7 7 6 6 6 6 6 6 7 7 9 10 9 8 7 6 8 9 9 7 6 6 6 7 7 7 7 6 6 6 6 7 6 5
14 15 15 16 14 15 14 14 13 12 11 11 12 13 13 12 14 15 17 15 12 11 10 10 10 11 13 13 12 11 13 9 11 10 10 9 9 9 9 8 8 8 9 9 9 9 9 8 9 8 8 7 7 7 6 6 6 7 7 8 8 9 10 9 9 9 8 9 9 9 8 8 7 8 7 7 7 7 7 7 7 7 7 7 6
14 14 14 14 14 14 14 13 11 12 12 14 12 11 13 13 13 14 13 13 13 11 10 10 11 11 13 13 13 12 12 11 10 10 9 9 9 9 8 8 9 9 9 9 10 9 8 9 8 8 8 8 7 7 7 6 7 8 8 6 8 10 10 9 9 9 8 7 8 9 9 9 8 9 8 8 7 7 7 7 7 8 7 7 7
13 14 14 14 13 14 14 15 15 14 15 14 12 11 13 14 14 13 13 13 13 12 11 11 11 12 13 13 12 11 12 14 11 10 10 10 9 9 8 9 9 9 9 9 9 9 9 9 9 8 8 8 8 7 6 7 8 9 8 8 8 10 10 10 9 9 9 8 9 8 9 8 7 9 8 7 7 7 7 8 8 7 8 7 7
10 10 10 11 12 12 12 14 14 14 14 15 12 11 12 13 13 13 13 13 13 11 9 11 11 12 13 14 12 12 14 13 10 9 11 11 10 9 8 9 9 8 9 8 9 10 10 9 9 9 8 8 8 7 7 7 9 9 9 9 9 9 9 9 9 9 9 8 9 9 8 8 8 9 8 8 7 7 7 7 8 7 7 7 7
11 12 12 13 13 14 14 12 13 14 14 15 14 13 11 12 13 13 13 13 12 11 11 11 11 12 13 13 14 14 14 11 10 9 11 11 10 9 7 9 9 9 9 9 8 9 9 9 8 9 9 9 8 8 9 8 8 8 8 9 9 9 8 8 8 8 8 9 8 8 8 8 8 9 8 8 8 8 7 7 7 7 7 7 6
13 13 14 16 16 15 14 13 13 14 15 15 14 12 11 12 13 13 13 12 12 9 11 11 11 12 12 13 13 13 12 12 11 11 12 11 10 9 9 7 9 10 9 9 10 8 8 9 9 9 9 9 8 8 9 9 9 8 8 8 8 8 8 8 7 8 8 7 7 7 7 8 8 8 8 8 8 9 7 8 8 7 7 7 7
17 13 13 12 14 16 15 15 14 15 15 14 13 12 11 12 13 11 12 12 12 12 12 12 11 11 11 13 13 13 11 11 11 10 9 9 9 9 9 9 7 10 10 10 9 10 8 9 10 9 9 9 9 8 8 9 9 9 9 9 8 8 7 6 6 7 6 6 7 6 7 7 7 8 8 8 8 8 7 8 7 7 7 7 7
14 12 13 15 15 15 15 13 13 14 15 14 13 10 11 11 12 12 13 12 11 12 12 11 9 9 11 12 13 11 10 9 9 9 9 8 8 8 8 7 9 9 10 10 11 10 8 8 9 9 9 8 8 8 8 9 9 8 8 8 8 8 8 6 6 5 5 6 6 6 6 6 7 7 7 7 7 7 7 7 6 6 6 7 7
16 15 13 13 15 15 15 13 12 13 14 15 14 11 11 10 11 11 9 10 11 12 12 12 11 10 11 13 9 8 8 10 9 8 8 8 8 7 7 8 7 7 7 9 10 10 10 9 8 8 9 7 7 7 7 8 8 8 8 8 8 8 7 7 6 6 5 5 6 6 5 6 7 8 8 7 7 6 5 6 6 6 6 7 7
16 16 15 14 12 13 14 13 9 14 14 13 12 13 14 13 11 12 13 14 12 12 13 13 15 13 12 10 9 9 8 9 9 9 8 8 8 8 8 8 8 8 8 9 9 9 10 10 10 9 8 6 5 4 6 9 9 8 8 6 6 6 7 7 6 6 5 4 4 5 6 9 9 10 8 8 10 11 10 7 6 5 6 6 7
15 15 14 12 12 12 12 13 11 10 14 13 10 13 14 14 12 13 13 12 12 13 12 13 14 14 12 11 11 10 9 10 9 8 8 9 9 8 9 9 8 8 9 9 9 10 9 9 10 10 9 6 5 5 10 8 9 9 8 7 7 6 5 6 6 6 6 5 4 5 5 7 9 9 8 9 10 10 10 11 11 10 9 7 6
16 15 16 15 13 15 15 14 14 12 12 14 12 11 14 14 15 13 12 14 14 14 14 13 12 11 11 12 11 11 10 9 9 9 9 9 9 9 9 9 9 9 8 8 9 9 9 9 8 9 8 7 6 9 11 10 10 9 7 7 6 6 5 5 5 6 5 5 5 4 4 4 5 7 9 8 9 9 10 10 9 9 9 10 10
17 17 18 18 16 14 13 11 13 16 13 12 12 11 11 13 14 14 11 11 11 13 15 14 11 12 12 11 11 12 11 9 9 10 9 9 10 9 9 9 9 8 8 9 8 9 8 8 9 10 8 7 7 10 11 11 10 9 8 7 6 6 6 5 5 5 6 6 5 5 4 3 4 6 7 8 9 8 7 8 10 10 8 8 8
14 15 16 16 16 14 13 11 10 12 14 13 14 12 10 11 12 13 12 8 10 11 8 10 11 12 12 11 10 10 11 10 9 9 9 9 10 9 9 8 8 8 8 8 8 9 8 8 8 9 8 7 8 10 11 11 11 10 9 5 6 5 5 5 4 4 4 5 5 6 6 5 5 5 5 7 7 7 7 6 5 5 5 5 5
16 16 14 13 14 15 15 14 12 11 9 11 12 11 10 10 9 9 11 14 16 16 11 10 14 12 12 11 10 10 10 9 9 9 9 9 9 9 9 8 8 9 9 9 9 9 8 8 8 8 7 7 6 11 11 12 11 11 9 6 6 5 4 4 3 3 3 3 4 4 6 7 6 6 5 5 7 6 5 4 4 4 4 4 4
15 16 15 14 13 14 13 13 11 10 11 10 9 8 10 12 13 15 13 14 16 15 13 10 9 12 13 12 10 9 9 9 10 10 10 9 9 10 11 9 8 7 6 7 6 7 9 8 8 8 7 7 7 10 11 12 12 12 10 6 6 6 5 5 4 3 3 3 3 4 5 6 6 6 5 3 3 4 5 5 4 4 3 3 3
12 14 15 13 13 13 14 12 11 12 12 11 12 11 11 12 13 11 15 15 14 16 15 14 12 11 12 13 11 10 10 10 11 11 11 11 11 10 8 7 8 7 7 7 7 7 7 8 8 8 8 7 8 9 10 12 13 13 9 7 6 6 5 5 4 4 3 3 3 3 4 6 6 6 7 7 5 7 5 4 4 4 3 3 3
11 11 11 12 13 12 12 14 15 15 14 10 11 12 10 13 13 13 14 15 17 16 15 13 10 11 15 14 14 13 11 11 11 12 12 9 8 7 9 8 9 9 8 7 7 7 6 7 8 9 8 9 8 9 11 12 13 12 9 8 7 7 6 5 5 3 3 3 3 1 2 5 6 6 8 7 7 6 4 4 4 3 3 3 3
12 12 11 12 13 14 14 14 14 14 11 12 11 11 10 12 13 14 14 14 13 12 14 15 11 10 11 14 14 13 12 11 9 8 9 11 10 9 8 7 6 7 7 7 6 7 6 5 6 6 8 9 8 9 10 12 12 11 9 8 7 7 7 5 5 4 3 3 4 3 2 2 3 7 9 8 8 7 3 4 3 2 3 3 3
9 9 10 9 10 12 12 13 14 12 11 14 14 14 13 12 11 13 14 14 11 8 9 10 11 12 10 10 11 13 12 11 13 13 9 9 8 7 8 7 6 5 6 6 6 6 7 6 5 6 7 6 9 8 10 11 12 11 9 8 7 8 8 7 6 6 5 4 4 4 3 3 4 7 8 7 6 5 3 4 2 1 2 3 2
8 7 8 10 11 12 13 14 13 9 10 10 10 12 16 14 14 13 12 9 11 11 10 10 11 12 12 13 11 11 14 13 12 10 8 7 7 9 9 8 9 6 6 6 6 6 6 6 6 6 6 6 7 9 10 11 11 11 9 8 8 8 8 8 7 7 6 6 5 4 3 4 3 6 6 7 6 4 3 3 2 1 2 3 1
7 9 9 10 9 9 9 9 9 10 9 8 9 10 12 12 9 8 10 11 11 12 13 13 11 10 9 9 9 10 11 11 10 10 9 8 7 8 9 9 8 9 8 7 6 6 6 5 5 5 5 6 6 8 10 9 11 10 10 7 6 7 7 8 7 6 6 5 5 4 4 4 4 5 6 6 6 6 3 3 2 5 4 2 2
10 9 7 9 9 9 9 8 9 10 8 9 9 9 8 7 9 8 6 7 8 8 8 8 9 10 10 10 10 12 10 10 11 11 11 10 9 9 7 7 10 9 8 7 7 6 6 6 5 5 5 5 7 6 9 9 9 10 9 6 4 7 3 6 7 7 6 5 4 4 4 5 5 6 6 6 6 6 5 3 6 5 5 3 2
7 8 8 7 7 8 8 8 8 7 8 9 10 10 9 5 10 9 9 9 9 9 10 10 9 10 10 11 12 12 10 9 12 12 11 11 11 9 9 7 6 9 10 9 5 5 5 6 7 6 5 5 6 6 6 8 8 9 8 6 6 8 8 6 6 6 6 5 5 4 5 7 6 7 7 6 5 2 4 6 5 5 5 4 3
9 8 7 5 7 8 7 7 5 6 5 6 8 10 9 8 9 10 10 10 11 12 12 10 8 9 10 9 8 7 9 9 10 11 10 10 10 10 9 7 8 7 9 9 9 7 7 6 6 7 7 6 6 6 7 6 8 8 7 7 7 8 6 3 6 5 5 5 5 9 9 7 7 7 8 8 7 6 5 5 5 4 5 4 3
8 8 6 5 5 6 8 8 8 7 6 5 6 8 10 10 10 11 10 10 11 11 10 12 10 9 9 10 8 7 9 11 10 8 8 8 10 9 8 9 9 8 9 9 10 8 6 6 6 7 7 7 6 6 7 7 6 6 5 6 6 7 8 5 3 5 5 7 8 9 8 8 6 6 5 3 3 3 4 4 3 4 4 2 3
9 9 8 7 7 6 7 8 8 6 6 6 7 6 8 10 9 10 9 10 11 11 10 11 12 11 11 9 9 10 10 10 8 7 7 8 8 8 8 8 7 8 7 7 8 8 7 6 7 7 7 6 7 7 7 8 8 7 7 6 5 5 3 5 6 5 5 5 6 6 5 4 5 4 4 5 5 5 4 4 3 3 2 2 2
9 8 6 6 6 7 8 8 8 6 5 6 6 9 11 10 10 10 10 10 10 11 13 13 13 12 10 10 9 12 12 9 9 9 8 7 6 8 8 9 9 9 9 9 9 8 7 7 7 7 7 7 7 8 8 9 9 9 8 8 8 7 7 7 7 6 5 6 6 5 6 5 5 4 4 4 3 3 2 3 3 3 2 1 2
9 7 6 6 6 6 7 8 6 4 3 5 8 10 12 13 12 11 11 11 11 10 10 13 13 11 10 8 9 10 10 11 11 6 4 8 10 10 10 10 8 9 11 13 12 9 8 9 9 9 9 9 9 10 10 9 9 10 7 9 8 8 7 6 5 8 5 4 5 6 6 5 5 3 4 3 3 3 3 3 2 3 3 3 4
8 6 6 6 4 6 7 7 6 4 4 6 8 9 9 8 10 10 11 12 12 12 13 13 12 12 10 9 9 9 10 9 9 9 8 4 7 5 1 6 7 6 1 4 4 8 10 9 9 8 10 12 13 11 12 14 12 12 12 12 10 9 7 6 8 10 7 6 7 5 6 6 6 5 4 3 3 3 3 3 4 2 3 4 3
8 8 7 6 6 6 7 7 6 6 5 6 7 7 7 8 8 8 9 12 13 10 9 10 10 9 10 9 9 9 7 7 7 8 7 7 6 4 8 6 4 4 3 2 4 4 3 7 8 8 8 3 6 9 15 15 14 14 14 12 10 10 9 10 12 7 2 4 4 5 5 4 6 6 3 5 4 3 2 2 3 4 4 4 3
Wind_Direction
217 199 178 184 189 184 181 178 182 179 184 181 179 180 181 177 176 181 180 179 181 178 174 169 171 159 154 159 149 135 137 146 151 160 165 158 143 140 133 129 136 127 115 115 114 110 107 105 102 92 87 81 68 53 30 27 30 44 58 43 22 16 28 3 2 333 335 136 147 142 123 109 83 74 67 55 52 52 53 46 50 44 37 33 30
196 165 167 180 183 184 174 175 177 181 188 184 182 180 181 177 177 177 178 178 176 164 134 126 138 160 168 161 144 136 145 161 159 160 158 154 138 130 130 136 132 118 109 105 110 119 117 111 101 99 93 81 69 60 57 64 59 52 13 30 38 32 40 9 3 330 38 11 341 143 135 137 105 78 64 56 48 47 50 55 48 45 33 29 25
217 215 185 188 184 177 177 179 183 189 188 188 187 182 181 179 177 174 177 171 162 139 134 127 141 147 161 159 150 130 143 151 149 148 149 146 140 125 127 130 123 110 107 104 105 103 110 109 105 100 90 103 114 95 59 50 39 39 25 360 36 69 57 35 27 19 5 345 270 245 54 190 164 132 74 59 53 46 50 56 53 46 39 30 28
225 217 209 191 184 177 175 183 183 186 184 190 189 187 185 184 177 174 172 166 155 146 151 157 151 143 143 141 128 137 143 137 130 135 139 133 121 117 116 119 114 109 104 108 107 105 104 107 112 107 103 86 76 88 65 55 36 27 26 34 347 64 55 54 41 37 20 339 32 13 14 327 29 66 3 70 56 52 47 48 54 46 38 36 28
225 215 199 195 181 181 176 184 178 187 191 189 187 186 144 190 183 175 169 164 160 160 152 142 136 128 121 115 115 114 117 130 139 142 146 128 126 123 111 111 109 104 104 105 111 104 99 107 109 106 102 81 75 84 67 48 43 39 32 42 37 28 71 67 56 43 45 26 9 331 65 74 33 336 331 114 31 45 44 39 44 49 32 31 27
231 221 206 195 179 173 178 179 182 192 195 191 185 175 161 169 163 186 172 165 159 163 152 146 141 141 141 141 144 140 139 152 161 163 160 152 132 109 100 96 105 102 103 104 100 106 103 102 102 109 100 89 77 79 80 75 48 39 35 42 60 45 55 76 75 59 50 52 54 59 20 13 360 350 321 21 53 76 36 38 30 50 36 30 34
230 225 204 190 178 177 186 184 187 190 194 191 188 182 154 158 159 166 188 173 161 161 154 145 139 152 161 164 157 160 155 161 159 153 140 125 138 135 104 95 99 105 99 98 98 100 104 97 97 92 91 93 86 80 68 56 55 45 44 57 54 54 50 76 54 44 80 62 59 63 62 63 49 0 15 322 345 36 48 17 24 22 33 27 30
226 220 204 188 179 185 187 186 181 190 185 183 188 186 171 174 165 161 175 179 166 156 145 135 138 151 155 153 155 162 166 160 152 129 132 141 137 129 122 108 100 101 103 96 101 109 108 105 103 99 96 87 81 72 67 62 73 69 62 64 64 56 54 67 70 44 36 62 43 59 80 83 65 58 37 7 344 324 359 31 26 355 26 31 34
224 217 206 198 181 185 187 187 184 179 180 184 187 186 186 177 168 157 173 174 162 155 142 144 152 161 157 156 149 152 141 138 140 148 143 138 131 133 123 115 105 92 90 102 109 112 109 108 106 103 98 87 81 83 73 65 61 62 60 61 64 65 62 62 70 59 47 41 40 68 72 73 71 67 40 21 14 342 359 355 351 351 9 43 26
220 216 204 192 180 181 185 185 178 178 178 186 188 188 193 186 165 151 170 153 156 159 149 153 157 160 155 157 148 140 135 134 143 146 144 139 131 144 122 121 112 97 89 97 105 106 103 106 102 97 94 85 80 80 81 72 64 65 62 68 69 73 64 62 63 64 60 51 39 30 48 62 65 48 34 24 25 16 339 343 351 349 2 41 24
210 198 190 189 177 177 175 184 183 174 179 185 189 191 194 187 149 140 124 151 166 167 162 162 165 163 157 158 148 146 145 147 150 153 146 141 150 151 137 127 111 103 110 104 101 106 114 108 97 94 89 89 88 83 74 74 75 76 76 71 63 63 66 72 70 61 61 56 47 45 50 47 39 38 26 23 18 7 342 345 355 353 3 27 23
204 186 178 182 177 176 176 183 178 174 177 187 193 194 191 152 100 104 142 154 162 171 169 165 163 157 148 150 147 150 154 159 160 153 152 148 150 151 140 132 122 117 123 122 126 132 126 110 98 98 92 87 82 78 77 79 81 77 72 68 68 64 65 66 62 59 57 65 55 52 57 54 52 41 37 27 19 9 340 340 356 351 31 46 25
193 181 180 180 182 180 180 180 175 175 178 185 192 192 153 106 125 157 166 162 155 169 180 167 160 157 157 156 147 153 152 155 157 152 153 150 143 138 147 147 142 145 144 138 135 136 118 113 110 104 98 86 87 84 79 79 81 79 75 72 65 62 59 61 63 57 55 58 63 60 59 57 56 50 38 32 22 353 354 349 4 14 19 38 38
185 182 186 189 190 186 182 177 176 171 173 179 182 173 129 127 150 170 167 162 158 169 173 148 133 149 150 144 144 144 146 152 155 151 151 150 140 142 151 151 151 151 147 142 141 130 105 102 103 98 96 96 91 87 85 80 80 83 77 74 72 71 72 72 72 70 65 61 63 67 58 59 56 46 43 36 25 17 19 5 346 40 33 45 44
184 190 189 191 192 185 178 174 173 170 177 175 177 164 144 151 168 164 165 152 149 143 100 98 102 137 164 152 153 154 152 152 148 149 146 146 140 140 144 146 145 142 139 138 139 116 111 110 108 105 100 96 95 94 89 85 84 85 82 80 78 76 77 76 72 69 67 65 65 66 68 61 53 47 43 43 36 33 22 6 1 18 80 50 41
189 191 187 192 189 183 175 171 173 177 174 175 172 167 153 160 130 144 158 141 113 100 126 156 162 171 157 153 156 153 147 144 148 139 142 147 139 140 138 137 132 127 130 134 124 121 117 113 107 103 106 101 97 96 95 92 88 90 89 89 85 79 81 79 80 76 72 68 69 71 70 62 54 50 50 46 42 34 31 22 11 14 17 49 54
187 190 190 189 180 179 179 175 175 175 175 175 175 170 160 145 147 162 162 136 125 145 166 169 164 165 161 162 155 152 155 155 152 156 147 144 131 128 129 127 125 127 137 126 123 117 118 115 112 112 107 102 98 94 98 98 95 90 91 90 87 82 81 76 75 77 76 74 71 67 68 66 59 57 52 49 46 42 41 38 30 25 2 34 43
190 191 193 190 182 178 175 172 172 173 175 174 174 169 159 144 149 148 145 153 162 164 162 165 161 159 161 165 164 163 157 151 139 151 152 141 130 122 125 131 136 135 134 126 124 120 116 117 117 114 108 106 105 107 106 103 98 91 89 86 86 89 88 83 77 80 78 77 74 71 69 69 60 58 56 49 48 45 44 44 40 34 23 42 34
189 192 189 185 177 174 173 173 168 161 167 175 172 165 160 142 129 131 166 181 170 165 164 161 159 156 162 165 167 166 162 158 154 144 146 141 134 133 135 134 128 126 129 132 128 126 124 120 120 118 116 113 113 113 113 105 102 100 95 92 88 90 89 86 81 82 80 80 78 75 70 69 63 62 59 53 48 45 46 47 45 43 37 32 31
190 188 187 187 177 176 171 166 163 170 174 172 172 169 164 138 134 162 172 175 163 169 167 154 156 156 160 164 171 169 156 146 144 150 147 139 135 136 134 137 139 134 134 135 131 132 132 129 127 127 124 121 121 116 111 109 105 101 101 96 94 96 93 91 91 84 83 83 80 74 64 64 63 65 59 52 50 46 42 43 43 45 42 27 23
190 189 189 187 175 172 168 166 166 169 174 172 169 170 160 141 150 166 170 164 160 164 165 157 160 164 163 164 167 163 161 153 146 149 141 135 131 133 137 133 131 135 139 138 136 137 137 134 134 134 131 128 126 123 119 115 108 104 99 99 102 100 99 99 99 91 86 85 83 80 73 66 62 61 56 55 50 45 45 45 43 45 44 33 24
189 190 187 182 172 170 165 165 163 172 174 173 168 163 153 151 152 162 161 157 155 160 164 162 163 165 165 166 165 164 163 157 145 143 132 131 135 136 133 132 134 139 144 140 140 139 140 140 136 135 132 129 130 127 127 121 116 110 104 103 103 103 104 105 102 96 91 86 86 83 78 70 62 63 59 55 50 49 46 48 46 44 44 40 22
191 190 187 181 176 169 168 167 171 177 179 171 167 162 160 154 152 157 159 157 157 161 166 168 169 165 166 163 158 157 161 162 147 143 137 136 136 135 140 137 138 140 142 142 141 144 144 141 137 136 134 132 133 131 127 125 118 115 113 109 108 108 109 110 107 104 100 95 90 86 83 76 71 69 64 58 54 55 54 57 54 49 49 42 36
185 186 178 174 171 163 166 171 176 182 182 174 168 165 156 156 155 158 159 157 158 159 157 168 168 168 162 158 151 157 162 159 146 141 138 139 141 142 143 137 137 138 140 139 143 147 146 144 140 140 138 138 137 133 129 125 121 120 119 115 112 110 110 110 111 109 103 98 94 90 85 81 77 73 66 64 57 56 57 57 58 55 53 47 38
180 179 173 165 164 166 174 177 180 181 182 179 177 170 160 157 157 156 157 156 160 157 164 169 168 167 164 158 156 159 161 150 144 140 141 142 143 142 141 138 135 135 137 140 144 148 148 149 147 147 143 142 141 138 132 127 122 122 120 118 116 114 113 112 108 105 100 100 95 90 88 84 80 76 72 67 61 58 57 56 56 57 54 51 48
184 179 171 175 176 180 183 182 184 182 183 179 176 169 160 156 157 155 153 154 160 155 166 167 165 161 164 159 155 156 152 152 147 145 146 146 145 144 141 137 140 137 140 146 149 153 156 153 151 148 145 142 142 139 135 133 129 126 122 119 118 118 117 116 111 107 104 99 97 93 89 88 83 81 78 73 68 63 59 58 56 53 55 53 49
189 179 171 172 179 188 188 186 183 183 184 179 174 165 159 156 157 141 150 158 159 164 167 167 165 159 159 161 158 158 150 152 149 146 143 143 144 142 142 142 140 140 146 150 154 153 155 154 151 147 146 144 142 141 136 135 134 133 131 127 124 123 122 114 110 106 103 101 98 96 97 96 93 88 85 81 80 74 65 61 55 54 52 51 51
188 185 172 175 183 189 188 184 185 187 184 181 175 156 151 149 148 151 154 153 161 165 166 156 133 155 161 163 164 152 145 144 139 136 135 135 134 135 134 135 141 143 148 152 154 155 151 153 149 147 143 143 144 141 139 138 138 138 138 137 133 132 129 123 113 108 105 102 100 100 99 100 102 99 92 87 82 81 74 67 58 56 51 50 49
188 191 178 179 182 189 187 184 185 179 180 180 179 161 150 147 148 153 144 149 152 165 164 156 143 162 168 163 148 128 133 134 133 127 121 125 129 128 133 139 143 142 144 149 151 150 149 147 146 144 143 144 147 145 146 146 141 143 143 142 142 139 139 134 128 117 109 108 106 100 103 103 93 81 58 57 46 27 64 74 60 53 51 50 50
188 191 190 183 181 182 184 183 171 176 170 170 171 168 164 160 152 155 158 165 156 166 165 161 163 165 163 153 132 130 132 131 131 133 132 131 134 139 142 144 144 145 142 143 146 150 152 151 149 146 146 147 147 146 137 143 147 147 147 142 141 143 145 145 140 131 117 109 106 109 93 97 104 100 93 88 79 66 47 46 48 41 43 54 53
190 190 190 183 179 175 175 180 173 166 165 160 167 166 162 162 156 161 168 163 161 168 167 164 164 163 155 140 138 139 137 136 133 128 133 138 141 143 146 146 143 142 143 143 146 148 152 154 154 152 151 152 146 137 135 139 133 136 141 144 148 146 147 152 154 151 139 130 125 122 125 122 117 111 101 97 94 92 89 81 66 48 29 24 48
190 189 191 189 176 176 175 177 181 177 165 164 163 168 164 166 165 165 165 172 172 169 169 170 158 146 143 145 141 142 141 136 135 138 142 143 143 146 147 147 143 141 141 143 148 152 150 150 150 153 153 152 147 133 147 143 144 144 141 142 143 147 153 156 159 155 144 143 138 138 132 136 136 131 129 117 104 99 97 91 83 73 63 48 32
189 190 191 192 187 178 177 174 185 197 186 170 163 163 168 164 164 162 156 163 163 163 172 170 154 148 148 148 144 144 144 143 143 142 138 140 144 143 143 143 145 144 143 148 148 145 149 152 154 155 154 149 143 145 152 150 146 142 134 143 147 148 158 156 156 157 149 149 149 144 143 134 125 145 146 133 127 117 104 108 113 107 84 66 57
191 192 193 194 195 189 179 171 173 186 199 188 175 168 163 158 158 154 154 149 152 171 160 154 152 152 148 148 145 137 141 143 139 135 136 136 140 143 140 140 137 140 144 139 143 146 147 156 159 157 152 149 145 153 155 152 145 142 146 145 142 147 148 151 156 155 153 152 157 158 155 154 156 170 153 149 142 139 140 140 130 103 98 116 119
191 193 189 189 190 192 187 174 174 175 161 165 171 157 144 140 133 145 166 170 174 169 164 165 164 151 148 146 142 137 134 135 135 133 132 133 135 135 138 141 147 151 151 151 153 153 155 158 158 155 150 149 140 148 155 150 145 145 141 140 138 139 145 141 145 147 154 143 162 170 165 161 165 171 167 168 154 151 142 129 120 108 93 76 62
194 194 192 185 183 185 181 180 171 163 166 157 153 143 151 162 166 166 184 180 171 165 159 165 170 152 146 144 138 131 127 130 133 136 136 137 141 149 150 151 147 145 143 143 146 152 154 157 155 153 148 144 137 152 154 152 146 145 146 148 146 148 146 146 145 152 155 155 164 176 166 164 170 174 154 219 246 168 149 133 120 114 106 96 77
191 193 193 189 186 182 181 168 159 166 166 153 144 147 161 169 179 179 173 177 174 169 169 169 168 154 144 146 144 136 137 139 145 146 148 153 157 156 146 143 137 142 147 153 153 154 155 154 154 158 150 141 145 164 160 154 150 152 158 154 151 155 147 146 146 147 161 155 169 180 179 169 170 172 157 191 217 250 146 136 117 113 103 88 75
187 185 182 186 187 183 169 172 172 173 170 155 152 155 154 173 182 178 179 182 182 178 173 165 168 154 150 147 149 150 146 152 152 157 157 148 137 139 149 154 148 149 155 156 153 149 151 156 159 160 157 147 152 159 166 158 156 167 166 157 162 159 149 146 142 152 157 153 113 83 231 179 174 163 156 185 194 235 165 136 132 118 100 89 89
177 172 165 172 178 176 174 175 174 170 157 149 164 156 155 172 180 184 186 186 187 176 172 171 158 156 150 147 149 153 154 151 144 135 143 149 154 155 154 151 139 139 140 143 149 146 146 149 155 152 140 145 147 155 169 162 162 167 166 163 167 163 160 158 156 152 160 151 138 127 10 293 176 137 156 172 196 237 182 150 137 121 93 88 82
161 170 170 156 156 164 168 177 177 174 166 168 167 176 176 180 187 183 185 187 181 159 167 150 143 150 158 151 151 145 143 144 151 168 162 151 136 122 140 139 131 128 131 141 144 145 148 148 144 147 156 154 148 156 169 169 165 170 178 169 170 168 167 160 163 161 157 153 146 141 126 86 112 140 156 165 187 250 253 158 171 122 100 101 129
147 139 134 160 170 174 177 180 178 154 166 172 178 181 185 186 190 190 184 157 142 137 141 148 158 160 160 159 158 149 148 151 159 152 142 118 134 142 140 141 136 128 131 136 142 141 140 138 151 154 156 158 156 157 163 172 166 169 176 177 171 173 163 164 165 164 167 161 163 148 132 102 142 138 147 149 156 185 279 197 193 108 44 66 130
107 130 144 158 163 172 172 173 157 141 152 166 177 191 194 182 168 155 167 160 150 149 156 157 153 154 146 147 148 145 142 143 142 138 131 130 130 141 148 141 143 144 141 140 138 142 142 139 143 147 152 159 151 159 158 171 166 166 175 202 181 167 164 163 165 169 167 168 164 152 143 127 143 129 125 129 134 149 194 220 72 70 87 143 220
137 146 142 148 159 163 164 158 162 154 143 160 171 193 212 179 139 139 122 117 122 130 125 130 136 139 145 143 143 140 149 149 144 149 142 137 142 141 138 146 143 136 129 131 144 146 144 144 146 154 157 160 161 166 163 163 166 167 173 205 205 156 172 182 171 171 172 160 153 134 116 123 143 130 126 122 126 139 184 92 112 131 127 131 234
130 138 145 143 146 164 160 157 156 148 146 156 164 173 204 149 90 96 102 112 124 129 133 137 139 144 146 151 153 157 151 140 148 151 145 141 145 143 141 147 144 144 145 145 145 147 149 152 157 157 162 169 170 171 168 169 161 170 168 180 172 159 173 189 175 168 166 153 156 157 129 139 140 131 121 111 95 73 85 119 137 128 151 202 235
135 144 138 137 144 158 151 140 116 125 128 150 159 169 176 126 127 140 149 142 135 135 137 138 146 150 151 146 144 139 145 142 148 151 148 146 136 139 140 143 144 145 153 154 156 166 167 165 163 163 168 173 176 176 168 169 159 163 168 169 179 171 188 186 161 155 161 162 102 104 123 143 138 129 125 125 110 90 97 110 121 158 203 211 222
122 129 133 106 100 133 145 118 107 106 110 126 146 160 155 142 145 145 148 145 141 136 139 147 147 148 144 145 136 121 139 151 144 149 147 151 151 155 149 152 156 157 163 162 162 171 169 169 170 168 171 175 174 178 177 165 162 157 170 174 188 186 178 203 167 135 120 108 132 136 130 130 144 157 171 168 147 105 90 101 118 225 221 225 236
120 126 127 128 130 139 132 123 116 124 130 143 145 135 123 134 146 148 149 144 143 137 137 144 150 150 155 152 145 148 154 151 146 140 148 151 155 151 147 148 154 153 159 168 173 167 171 177 175 173 170 173 176 185 184 174 176 174 180 164 178 189 172 146 151 141 139 147 149 159 150 120 80 70 59 80 106 141 169 174 182 204 215 227 219
116 125 115 117 131 147 149 136 137 155 149 136 117 124 134 139 141 144 144 143 145 152 150 155 155 157 156 152 147 144 145 150 156 152 150 149 154 158 155 160 166 167 166 174 172 178 177 179 181 175 175 180 189 194 191 183 178 179 177 175 182 180 180 183 173 165 173 158 154 119 123 159 156 170 171 181 175 181 180 193 202 205 205 141 54
120 123 130 139 150 154 148 142 149 154 130 105 117 137 147 146 150 150 148 146 149 147 147 154 156 156 152 145 147 153 156 154 156 151 139 166 169 173 173 180 187 176 176 172 176 188 186 185 177 176 178 187 197 200 200 182 173 175 173 179 184 186 185 182 155 133 127 141 157 172 176 177 190 195 197 198 185 196 196 198 207 226 211 206 215
115 113 112 109 113 125 134 136 144 144 107 117 131 143 148 144 147 147 147 147 149 152 154 160 161 163 155 144 146 154 161 153 154 157 151 114 35 50 143 169 170 170 196 301 206 190 189 181 186 190 186 188 198 203 159 163 169 172 182 189 188 177 171 158 141 159 166 175 186 190 190 191 195 203 207 206 204 210 212 212 213 206 236 238 239
126 123 128 129 130 129 125 136 149 148 128 125 133 140 144 148 145 146 143 147 151 148 152 155 160 161 155 148 148 156 153 158 157 155 140 137 138 83 56 73 119 130 170 168 204 261 252 214 199 188 200 248 26 107 155 171 169 178 186 189 180 166 159 149 147 140 190 186 187 198 198 202 201 211 213 216 217 219 228 233 240 225 235 236 239